Regional Weather Roundup
Issued by NWS Portland, ME

Current Version | Previous Version | Text Only | Print | Product List | Glossary Off
Versions: 1 2 3 4 5 6 7 8 9 10 11 12 13 14 15 16 17 18 19 20 21 22 23 24 25 26 27 28 29 30 31 32 33 34 35 36 37 38 39 40 41 42 43 44 45 46 47 48 49 50
724 ASUS41 KGYX 280105 RWRGYX WEATHER ROUNDUP FOR MAINE AND NEW HAMPSHIRE NATIONAL WEATHER SERVICE GRAY ME 900 PM EDT THU JUL 27 2017 MEZ002-005-006-010-012-015-018-020-021-024-026-027-029-280200- MAINE CITY SKY/WX TMP DP RH WIND PRES REMARKS PORTLAND CLOUDY 69 63 81 SW6 29.83R SANFORD N/A 67 65 93 SW6 29.84S WISCASSET CLOUDY 67 63 87 CALM 29.83S ROCKLAND CLOUDY 65 63 93 SW7 29.82R FRYEBURG CLEAR 68 63 84 VRB3 29.83R LEWISTONAUBURN PTCLDY 68 64 87 S5 29.82R AUGUSTA PTCLDY 66 64 93 S5 29.82R WATERVILLE FOG 64 64 100 SW3 29.78F VSB 1/4 BANGOR MOCLDY 63 61 93 S5 29.81S GREENVILLE N/A N/A N/A N/A CALM 29.80R MILLINOCKET MOCLDY 64 32 30 SE6 29.79S HOULTON MOCLDY 67 64 90 S8 29.76S PRESQUE ISLE CLOUDY 66 62 87 SW7 29.75R FRENCHVILLE PTCLDY 63 60 90 S5 29.73S CARIBOU MOCLDY 66 61 84 S3 29.73S $$ NHZ002-005-008-009-011-012-014-280200- NEW HAMPSHIRE CITY SKY/WX TMP DP RH WIND PRES REMARKS PORTSMOUTH PTCLDY 68 64 86 SW5 29.83S ROCHESTER CLEAR 68 63 84 CALM 29.84R NASHUA CLEAR 68 66 93 VRB3 29.87R MANCHESTER PTCLDY 69 63 81 S7 29.84S CONCORD CLEAR 66 64 93 S5 29.85R LACONIA CLEAR 68 64 87 SW5 29.85S PLYMOUTH MOCLDY 65 62 93 CALM 29.84R BERLIN MOCLDY 65 61 87 CALM 29.84R WHITEFIELD PTCLDY 66 61 84 SW3 29.85R JAFFREY CLOUDY 67 66 97 SW6 29.90R KEENE MOCLDY 65 65 100 CALM 29.88R FOG LEBANON PTCLDY 66 64 93 S7 29.85R MT WASHINGTON FOG 48 48 100 NW40G46 N/A VSB 0 $$ VTZ005-007-008-280200- VERMONT CITY SKY/WX TMP DP RH WIND PRES REMARKS ST JOHNSBURY N/A 67 66 97 MISG 29.82R MONTPELIER PTCLDY 64 64 100 W5 29.89S BURLINGTON PTCLDY 69 67 93 CALM 29.83R $$ MAZ007-012-024-CTZ003-RIZ002-NYZ038-NYZ072-280200- SOUTHERN NEW ENGLAND AND NY CITY SKY/WX TMP DP RH WIND PRES REMARKS BOSTON CLOUDY 68 65 90 SW9 29.87R WORCESTER PTCLDY 65 63 93 W8 29.91R NANTUCKET CLOUDY 65 64 97 S8 29.92F PROVIDENCE CLOUDY 67 67 100 S5 29.90F HARTFORD CLOUDY 71 67 87 S5 29.89R ALBANY PTCLDY 69 66 90 NE3 29.88R NEW YORK CITY CLOUDY 76 71 85 S6 29.88F $$ ANZ081-ANZ082-ANZ150-NHZ014-MEZ023>029-280200- COASTAL MARINE OBSERVATIONS STATION/POSITION TIME TEMP WIND PRES WAVE AIR SEA DIR/SP/G HT/PER (UTC) (F) (DEG/KT/KT) (MB) (FT/S) MOUNT DESERT ROC 0000 60 1010.5R MATINICUS ROCK 0000 60 210/ 20/ 21 1009.5F ISLE OF SHOALS 0000 67 220/ 15/ 16 1010.2F JEFFREYS LEDGE 0006 62 N/A 3/ 8 CASHES LEDGE BUO 2350 63 61 1010.4 4/ 6 GEORGES BANK BUO 2350 65 65 1013.7 4/ 8 $$ .............KEY.............. WCI - WIND CHILL TC - TEMPERATURE IN CELSIUS VSB - VISIBILITY IN MILES HX - HEAT INDEX FAIR- INDICATES FEW OR NO CLOUDS BELOW 12,000 FT, WITH NO SIGNIFICANT WEATHER AND/OR OBSTRUCTIONS TO VISIBILITY.

USA.gov is the U.S. government's official web portal to all federal, state and local government web resources and services.